Temp
13 13 13 13 13 14 14 14 14 14 14 14 14 14 14 14 14 15 15 15 15 16 16 16 17 18 18 18 19 19 19 19 20 19 19 19 18 18 18 17 17 18
13 13 13 13 13 13 13 13 14 14 14 14 14 14 14 14 14 14 14 14 15 15 16 16 16 17 18 18 18 19 19 19 19 19 18 18 19 19 18 17 17 17
12 12 12 12 13 13 13 13 13 14 14 15 14 14 14 14 14 14 14 14 14 15 16 16 16 17 17 18 18 18 18 18 18 18 18 18 19 19 19 18 18 17
12 12 12 12 12 13 13 13 13 13 14 14 14 14 14 14 14 14 14 14 14 15 15 16 16 17 17 18 18 18 18 18 18 18 18 18 19 19 19 18 18 17
12 12 12 12 12 12 12 13 13 13 13 14 14 14 14 14 14 14 14 14 14 14 15 15 16 16 16 17 18 19 19 18 18 18 18 18 18 18 18 17 18 17
12 12 12 12 12 12 12 13 13 13 13 13 14 14 14 14 14 14 14 14 14 14 15 15 15 16 16 16 17 18 18 18 18 18 18 18 18 18 18 17 17 17
12 12 12 12 12 12 12 13 13 13 13 13 13 14 14 14 14 14 14 14 14 14 15 15 15 15 15 16 17 17 18 18 18 18 18 18 18 18 18 17 17 17
11 12 11 11 11 12 12 12 13 13 13 13 13 14 14 14 14 15 15 14 14 14 14 14 15 15 15 16 16 16 17 17 18 18 18 18 18 18 17 17 16 16
11 11 11 11 11 11 12 12 12 13 13 13 13 13 14 14 14 15 15 15 15 14 14 14 14 14 15 15 16 16 16 17 17 18 18 18 18 17 17 17 17 16
11 11 11 11 11 11 11 12 12 12 12 13 13 13 13 13 14 14 14 15 15 15 15 15 15 14 14 15 15 16 16 16 17 17 17 18 18 17 17 17 17 16
11 11 11 11 11 11 11 12 12 12 12 12 13 13 13 13 13 13 14 14 14 15 15 15 15 15 14 14 14 15 16 16 16 17 17 17 18 17 17 17 17 17
11 11 11 11 11 11 12 12 12 12 12 13 13 13 13 13 13 13 13 13 14 14 15 15 16 15 14 14 14 15 15 15 16 16 16 17 17 17 17 17 17 17
11 11 11 11 11 11 12 12 12 12 13 13 13 13 12 12 13 13 13 13 13 14 14 15 15 15 14 14 14 14 15 15 15 16 16 16 16 17 17 17 17 17
11 11 11 11 11 11 12 12 13 13 13 12 12 12 12 12 12 12 12 12 13 13 14 14 14 14 14 14 14 14 14 14 15 15 15 16 16 17 17 17 17 17
11 11 11 11 11 12 12 12 13 12 12 12 12 11 11 11 11 12 12 12 12 13 13 13 13 12 13 13 13 13 13 13 14 14 14 15 16 16 16 17 17 17
11 11 11 11 11 12 12 12 12 12 12 12 11 11 11 11 11 11 11 11 12 12 12 12 12 11 11 12 12 13 13 13 13 14 14 14 15 15 16 17 17 17
11 11 11 11 12 12 12 12 12 12 12 11 11 10 10 10 10 10 10 10 10 10 11 11 10 10 10 11 11 12 13 13 13 13 14 14 15 15 16 16 17 17
10 11 11 11 12 12 12 12 12 12 11 11 11 10 10 10 10 10 10 10 10 10 10 10 10 10 10 10 11 11 12 12 13 13 14 14 15 15 15 16 17 17
10 11 11 12 12 12 12 12 12 11 11 11 10 10 10 10 10 9 9 9 9 9 9 9 9 9 10 10 10 11 11 12 12 13 13 14 14 15 15 16 16 17
10 11 11 12 12 12 12 12 12 11 11 10 10 10 10 10 10 9 9 9 9 9 9 9 9 9 9 10 10 11 11 12 12 12 12 13 14 15 15 16 16 16
10 11 11 12 12 12 12 12 12 11 11 11 11 11 10 10 10 10 9 9 8 8 9 9 9 9 9 10 10 11 11 12 12 12 12 13 14 15 15 15 15 16
10 10 11 11 12 12 12 12 12 11 11 11 11 11 11 11 10 10 10 9 9 8 8 8 8 9 9 9 10 11 11 12 12 12 13 13 14 14 15 15 15 15
10 10 10 11 11 11 11 11 11 11 11 11 11 11 11 11 11 10 10 10 9 9 8 8 8 9 9 9 10 10 11 11 12 12 13 14 14 14 15 14 14 14
10 10 10 10 11 11 11 11 11 11 11 11 12 12 11 11 11 11 10 10 9 9 9 8 9 9 9 9 9 9 10 11 11 12 13 13 13 14 14 14 14 14
10 10 10 10 10 11 11 11 11 11 11 11 12 12 11 11 11 11 11 10 10 9 9 9 9 9 8 8 9 9 10 10 10 10 11 11 12 13 13 14 13 13
10 10 10 10 11 11 11 11 11 11 11 12 12 12 12 11 11 11 11 11 10 10 10 10 9 9 8 8 8 9 9 10 9 9 9 10 10 11 12 13 13 12
Height
806 804 803 802 801 800 800 799 798 797 797 795 794 793 793 793 793 793 794 795 796 798 799 800 799 798 799 800 801 803 805 807 808 810 811 813 814 816 820 824 825 825
806 805 804 803 802 801 800 800 799 798 797 796 796 795 794 794 794 794 795 795 796 797 798 799 799 797 797 798 800 802 804 807 809 810 811 813 813 816 822 825 826 828
807 805 804 803 802 801 801 800 799 798 798 797 796 796 795 795 795 795 795 795 795 796 796 797 797 797 797 797 799 801 804 806 808 808 810 812 813 817 822 824 826 828
807 806 805 804 803 802 801 800 799 798 798 797 797 796 795 795 795 794 794 795 795 795 796 796 795 796 797 798 798 799 802 804 805 806 808 810 813 816 820 822 823 825
807 806 805 804 803 802 801 800 799 799 798 797 797 796 796 795 795 794 794 794 795 795 796 796 795 796 797 798 797 797 800 802 803 804 806 808 811 814 818 820 821 823
807 806 805 804 803 802 801 800 800 799 798 797 796 796 796 795 795 794 794 794 794 795 795 796 796 797 797 797 797 797 798 800 802 803 804 806 809 811 815 817 818 819
807 806 805 804 802 802 801 800 800 798 798 797 796 796 796 795 795 794 794 794 794 794 795 795 796 797 797 797 797 797 797 799 801 803 803 805 807 809 813 815 816 817
807 806 804 803 802 801 800 799 799 798 798 797 796 796 795 795 795 794 793 793 793 794 794 794 794 795 795 795 796 796 797 798 800 801 802 803 805 808 811 814 816 817
807 806 805 803 802 801 800 799 798 798 797 797 796 795 795 794 794 793 793 792 792 793 793 793 793 793 794 794 795 796 796 796 797 799 800 802 804 807 810 812 815 817
807 806 805 803 802 801 800 799 798 797 797 796 796 795 794 794 793 793 792 792 792 792 792 792 793 793 794 795 795 795 795 795 795 796 798 799 802 805 808 811 813 816
807 806 804 803 802 801 800 798 797 797 796 796 795 795 794 794 793 793 792 791 791 791 792 792 792 793 795 795 795 795 794 794 794 795 796 797 800 803 806 809 811 814
807 806 804 803 802 801 800 798 798 797 796 796 795 795 794 794 793 793 792 791 791 791 791 791 792 793 793 794 794 794 793 793 793 794 795 796 798 801 803 806 807 809
807 806 805 804 803 801 800 799 798 797 796 796 795 794 794 794 793 793 792 792 791 791 791 791 791 791 792 792 793 793 793 792 792 794 795 796 798 799 801 803 804 805
808 806 805 804 803 802 801 799 798 798 797 796 795 794 794 794 794 793 792 792 791 790 790 790 790 789 790 790 791 792 791 791 792 793 794 795 797 798 799 800 801 803
808 806 805 804 803 802 801 800 799 798 797 796 796 795 795 794 793 793 792 791 791 790 790 789 788 788 789 790 790 790 790 791 791 792 793 795 796 797 798 798 800 802
808 807 805 804 803 803 802 800 800 799 798 798 797 796 796 795 794 793 792 792 791 790 790 789 788 789 789 790 790 790 790 791 792 793 794 795 796 796 797 797 799 801
808 807 806 805 804 803 802 801 801 800 799 799 798 797 797 796 795 794 793 792 791 791 790 790 789 790 790 790 790 790 791 791 792 793 794 795 795 795 796 796 798 799
808 807 806 805 804 803 803 802 801 801 800 800 799 798 798 797 796 795 794 794 793 792 791 791 791 791 790 790 790 790 791 791 792 792 793 794 794 794 795 795 796 797
809 807 806 806 805 804 803 802 802 801 801 801 800 799 799 798 797 796 795 795 794 793 793 792 792 791 791 790 790 790 790 790 790 791 792 792 793 793 794 794 794 796
809 808 807 806 805 804 804 803 802 802 802 801 801 800 799 799 798 797 796 796 795 794 794 793 793 792 791 790 790 789 789 789 789 789 790 791 792 792 792 793 793 795
810 808 808 807 805 805 804 803 803 802 802 802 801 800 800 799 799 798 797 797 796 795 795 794 794 793 792 791 789 789 788 788 788 788 789 790 791 791 791 792 793 795
810 809 808 807 806 806 805 804 804 803 802 802 801 801 800 800 799 799 798 798 797 796 796 795 795 794 793 791 789 788 788 787 788 788 788 789 790 790 791 792 793 794
811 810 809 808 808 807 806 805 805 804 803 802 801 801 800 800 800 799 799 799 798 798 798 797 796 795 794 792 790 788 787 787 787 787 788 788 789 790 791 792 792 791
811 810 810 809 808 808 807 806 805 805 804 802 802 801 801 801 800 800 799 799 799 799 799 798 797 796 794 793 791 789 788 788 788 787 788 788 789 790 791 790 790 790
811 811 810 810 809 808 807 806 805 805 804 803 802 801 801 801 801 800 800 800 800 800 799 799 798 796 795 793 791 790 789 788 788 788 788 789 789 789 790 790 790 790
811 811 811 810 809 808 807 806 805 804 804 803 802 802 802 802 801 801 800 800 800 800 799 799 798 797 796 794 792 791 791 790 789 789 789 790 790 790 790 791 791 790
Wind_Speed
15 15 15 15 15 15 15 16 16 15 15 15 15 16 15 12 7 2 4 6 6 9 12 13 12 11 11 10 8 7 5 5 6 7 7 6 5 7 14 19 20 22
14 14 15 15 15 15 15 16 16 15 14 13 13 13 13 13 10 6 4 4 2 5 7 8 9 8 9 9 8 7 4 3 5 6 6 6 5 5 13 20 20 21
14 14 15 15 16 16 15 15 15 14 14 12 11 11 11 11 11 9 7 5 3 2 2 4 6 6 6 8 7 5 4 3 3 4 4 4 4 5 12 19 21 22
14 14 14 14 14 15 15 14 14 14 14 12 10 10 10 9 9 10 9 7 5 3 3 1 3 3 2 5 8 6 2 1 1 2 3 3 2 4 10 17 21 23
14 14 13 13 13 13 13 13 14 13 14 13 11 11 10 9 8 8 9 9 7 4 4 4 1 1 2 1 4 6 4 2 3 2 4 5 3 4 10 15 20 25
14 14 14 13 13 13 12 12 12 12 13 13 13 11 10 9 8 8 8 8 9 8 5 3 2 1 2 3 2 3 3 2 4 4 4 5 5 5 11 16 20 27
14 14 14 14 13 13 12 11 11 11 11 12 12 12 11 10 9 8 8 8 9 11 9 5 3 2 1 3 5 3 3 3 5 6 5 5 5 7 11 13 17 27
14 13 13 14 14 13 12 11 10 10 10 10 10 11 11 11 10 10 10 9 10 11 9 6 5 4 2 2 3 4 4 5 7 8 8 7 6 8 10 11 12 20
12 12 13 14 14 13 12 12 11 10 9 9 9 10 10 10 11 11 11 11 11 10 8 6 5 5 4 4 3 3 5 7 9 10 9 8 9 9 11 14 13 12
11 12 12 14 14 14 14 13 12 10 9 9 8 9 9 10 11 11 10 10 10 11 10 8 5 4 5 6 4 3 3 4 6 9 9 9 12 13 13 14 14 13
12 12 13 14 14 15 15 13 12 11 9 8 8 8 9 10 11 11 10 11 11 11 12 11 7 4 5 6 6 5 4 4 3 5 7 9 12 14 14 14 13 15
12 13 14 14 14 15 16 14 12 12 11 9 8 8 9 10 11 11 10 11 11 11 11 11 8 5 6 7 8 8 6 6 5 4 6 7 9 12 14 14 12 14
11 13 14 14 13 14 16 14 13 12 12 11 11 10 10 11 11 11 11 11 11 11 10 11 9 5 4 4 6 8 8 7 8 8 8 7 8 11 13 13 11 12
11 13 13 12 13 13 14 13 12 12 12 12 12 12 11 11 11 11 11 11 10 10 10 9 7 5 3 3 3 4 5 6 8 9 9 9 10 11 11 11 11 11
10 12 13 13 13 12 12 13 13 13 13 13 12 12 12 12 11 11 12 13 12 11 9 6 4 5 5 6 6 5 4 3 5 7 8 10 10 10 9 9 10 11
10 11 12 12 12 11 12 14 13 12 13 12 11 11 11 12 12 11 11 13 12 8 3 3 4 6 6 6 7 7 6 5 5 5 6 7 8 10 10 8 8 10
10 11 12 12 11 11 12 12 11 11 12 11 11 11 11 12 11 11 12 13 12 8 6 7 8 8 8 7 6 7 8 7 7 7 7 7 7 7 9 9 9 11
10 11 10 10 10 10 11 10 10 11 11 10 10 10 10 11 11 11 11 12 12 11 10 11 11 10 9 9 8 7 7 7 7 7 8 9 8 7 7 7 8 10
11 11 9 9 9 9 9 9 10 10 10 9 9 9 9 9 10 10 11 11 12 12 12 12 12 11 11 10 10 9 9 9 8 7 7 9 10 8 7 7 9 10
11 11 9 8 9 9 9 10 9 8 8 9 9 9 9 9 9 10 10 10 11 12 12 13 14 14 13 12 11 11 11 10 9 7 5 7 8 8 8 9 11 11
9 10 10 9 9 9 10 9 9 8 8 7 7 7 8 8 8 9 10 10 10 11 12 14 16 16 16 15 14 13 12 10 7 6 6 6 6 7 7 8 10 10
8 9 10 9 9 9 9 9 10 10 8 7 6 6 7 7 7 8 9 9 10 10 10 14 17 18 19 18 15 13 11 7 4 6 7 7 5 5 7 8 9 10
7 8 8 9 9 9 9 10 10 10 9 9 7 5 7 7 6 6 8 8 9 9 9 12 16 18 20 20 16 12 8 4 4 8 9 7 7 5 4 4 5 6
6 7 7 8 8 8 9 10 9 9 9 10 8 6 7 7 6 6 7 7 8 9 8 10 13 15 19 21 18 13 9 6 8 11 10 8 8 8 6 5 5 5
6 7 8 8 8 8 7 8 8 7 7 8 7 6 7 7 6 5 6 6 7 7 8 8 10 13 17 20 18 14 10 8 10 11 9 8 8 9 9 7 5 6
7 7 7 7 7 7 7 7 7 7 7 7 6 6 5 5 5 4 4 5 4 5 7 6 7 11 15 17 17 15 11 9 9 10 9 9 9 9 9 9 9 9
Wind_Direction
334 335 335 337 339 340 344 343 343 347 350 355 356 359 9 15 21 16 248 240 222 200 200 200 188 193 205 199 198 197 204 221 217 229 222 188 172 208 240 247 237 235
336 338 335 334 337 337 340 340 338 340 342 348 352 353 358 1 8 15 344 305 251 176 183 191 176 176 188 189 198 205 201 193 185 197 206 192 176 211 247 249 247 248
338 339 335 333 335 332 333 336 334 334 333 338 347 349 351 354 356 351 341 343 2 62 165 191 164 140 149 159 162 180 205 212 182 179 179 157 158 225 250 243 246 262
338 336 332 330 330 329 331 332 331 331 328 328 335 338 338 343 351 350 340 337 345 5 4 302 165 128 94 144 142 130 109 336 281 210 207 194 185 258 266 250 242 257
336 332 329 328 327 328 328 326 326 325 326 325 324 327 329 326 331 339 337 332 327 322 341 355 37 194 305 230 156 141 113 16 342 308 235 229 254 321 309 279 250 246
335 332 331 328 326 326 323 321 321 320 322 325 323 322 321 315 313 321 327 325 323 320 315 321 330 276 275 292 275 182 175 270 316 311 263 238 251 307 324 304 270 251
334 332 331 330 328 327 322 318 316 316 317 319 320 318 314 308 300 301 315 314 309 316 316 301 284 286 297 284 286 272 217 240 283 284 264 244 259 295 312 311 282 255
335 334 334 335 332 329 325 319 316 315 314 313 315 316 314 312 303 293 299 306 304 305 309 308 294 283 279 256 264 275 255 247 265 276 272 255 267 300 307 316 298 257
338 339 339 339 335 331 328 326 324 321 319 316 315 318 317 315 315 307 298 299 304 299 290 296 308 298 278 259 242 261 273 274 272 276 282 270 267 284 293 305 308 268
342 342 343 343 338 334 333 334 333 330 329 328 322 324 325 321 323 322 312 306 303 298 290 287 304 324 295 269 255 242 252 289 290 278 278 273 266 271 278 289 296 279
348 344 343 343 337 337 341 342 341 339 338 340 338 337 335 332 331 327 325 320 307 298 293 285 282 299 295 272 261 257 244 247 277 275 269 267 264 265 270 274 281 281
353 347 343 342 338 341 347 348 347 347 349 349 352 354 350 348 345 339 334 326 314 307 299 292 286 277 279 277 271 273 265 246 248 259 262 259 253 253 261 267 275 281
353 344 341 340 339 343 348 352 352 353 357 357 358 2 0 357 351 343 337 331 322 317 313 314 318 305 284 290 283 282 280 261 249 248 252 251 247 247 251 259 272 282
347 342 341 339 338 342 349 355 357 358 1 2 4 6 4 360 353 345 340 336 328 320 318 322 330 330 322 326 326 312 298 274 254 249 255 255 250 249 245 246 259 270
347 345 340 337 340 346 354 360 0 3 6 8 11 11 7 0 356 354 347 339 333 326 321 321 330 344 340 328 329 341 350 322 275 263 266 264 258 255 249 244 249 253
347 344 340 342 347 351 0 2 1 7 12 14 19 16 10 5 360 359 358 355 352 346 341 1 4 7 3 342 325 321 325 326 309 292 280 275 272 264 255 249 248 250
350 346 344 349 352 355 0 360 1 11 13 11 16 18 15 11 9 11 18 27 36 44 49 36 21 15 6 350 337 321 308 302 302 300 290 288 292 281 265 256 252 256
350 343 344 349 352 354 354 356 6 14 11 7 12 19 19 16 17 24 28 33 41 43 37 29 17 7 359 349 343 336 322 312 306 300 289 285 293 303 296 280 273 272
346 337 343 347 348 349 351 4 15 14 12 9 10 20 27 24 25 32 32 28 30 33 30 22 10 360 353 345 338 332 326 321 315 306 287 274 279 297 312 311 313 312
350 346 352 350 352 359 4 13 18 19 19 12 10 22 30 32 33 33 33 28 23 26 27 21 13 4 355 346 339 332 326 320 319 319 301 274 272 288 307 314 315 317
357 355 354 352 360 7 10 13 15 22 28 15 13 27 28 32 42 39 36 33 21 19 23 19 14 9 1 350 337 329 324 320 329 339 324 295 276 277 292 307 305 300
3 358 355 356 7 9 8 10 9 13 18 7 9 36 36 31 41 43 40 38 29 23 19 14 12 12 8 358 342 330 324 319 343 354 335 324 317 285 276 290 298 297
8 8 3 358 4 5 1 2 5 6 1 351 357 36 44 30 32 46 44 35 31 28 18 9 8 8 9 7 359 351 345 349 19 6 352 356 3 336 294 298 318 317
9 9 6 0 2 3 357 356 2 2 351 345 351 27 40 26 20 42 47 35 30 29 20 8 1 358 3 8 8 5 10 33 29 12 9 25 26 15 19 34 30 22
19 11 5 8 8 4 2 359 357 359 354 347 351 21 38 22 9 28 45 41 36 30 23 12 356 352 1 8 12 10 13 27 27 15 12 20 21 19 26 36 35 32
30 20 10 13 10 5 10 9 1 5 6 354 357 23 41 24 8 18 47 58 53 25 17 11 357 360 6 10 13 14 12 14 15 9 6 9 13 9 8 22 34 22